Location: Mentone
(34.5413°N, 85.5351°W)
Time: 15:07:19
(UTC-06:00)

Vanguard 1 - Visible Passes

Search period start: 31 January 2015 00:00
Search period end: 10 February 2015 00:00
Orbit: 653 x 3833 km, 34.2° (Epoch: 30 January)

Date Brightness Start Highest point End Pass type
(mag) Time Alt. Az. Time Alt. Az. Time Alt. Az.
31 Jan 13.0 02:27:27 34° SSE 02:30:27 36° SSE 02:42:40 10° E visible
31 Jan 11.9 04:40:17 17° SW 04:54:37 67° SSE 05:04:05 10° E visible
01 Feb 13.9 00:35:40 13° ESE 00:35:40 13° ESE 00:38:05 10° ESE visible
01 Feb 12.7 02:48:28 40° S 02:52:22 44° SSE 03:04:40 10° E visible
01 Feb 11.7 05:01:18 15° WSW 05:16:20 76° SSE 05:25:30 10° E visible
02 Feb 13.6 00:56:29 20° ESE 00:56:29 20° ESE 01:02:14 10° E visible
02 Feb 12.5 03:09:16 45° SSW 03:14:15 53° SSE 03:26:26 10° E visible
02 Feb 11.6 05:22:04 12° WSW 05:38:04 83° S 05:46:54 10° E visible
03 Feb 13.4 01:17:07 28° ESE 01:17:07 28° ESE 01:25:12 10° E visible
03 Feb 12.3 03:29:53 46° SSW 03:36:06 63° SSE 03:48:03 10° E visible
03 Feb 11.5 05:43:18 10° W 05:59:48 87° S 06:08:17 10° E visible
04 Feb 13.1 01:37:36 36° ESE 01:37:36 36° ESE 01:47:35 10° E visible
04 Feb 12.1 03:50:22 43° SW 03:57:57 71° SSE 04:09:34 10° E visible
04 Feb 11.4 06:05:40 10° W 06:21:32 89° S 06:29:40 10° E visible
05 Feb 12.8 01:57:57 46° SE 01:57:57 46° SE 02:09:35 10° E visible
05 Feb 12.0 04:10:43 39° WSW 04:19:48 79° SSE 04:31:02 10° E visible
06 Feb 13.9 00:05:27 12° E 00:05:27 12° E 00:06:31 10° E visible
06 Feb 12.6 02:18:12 57° SE 02:18:12 57° SE 02:31:23 10° E visible
06 Feb 11.9 04:30:57 32° WSW 04:41:39 85° S 04:52:28 10° E visible
07 Feb 13.7 00:25:37 19° E 00:25:37 19° E 00:29:27 10° E visible
07 Feb 12.4 02:38:21 67° SSE 02:38:34 67° SSE 02:53:02 10° ENE visible
07 Feb 11.8 04:51:06 26° W 05:03:31 88° S 05:13:56 10° E visible
08 Feb 13.5 00:45:42 26° E 00:45:42 26° E 00:51:50 10° E visible
08 Feb 12.3 02:58:26 70° SSW 03:00:31 75° SSE 03:14:37 10° E visible
08 Feb 11.8 05:11:10 20° W 05:25:23 89° S 05:35:22 10° E visible
09 Feb 13.2 01:05:43 35° E 01:05:43 35° E 01:13:53 10° ENE visible
09 Feb 12.2 03:18:27 65° SW 03:22:29 81° SSE 03:36:10 10° E visible
09 Feb 11.8 05:31:11 15° W 05:47:12 87° S 05:56:46 10° E visible
09 Feb14.223:12:57E23:12:57E22:31:12SSWvisible
